Regional Weather Roundup
Issued by NWS

Home | Current Version | Previous Version | Text Only | Print | Product List | Glossary Off
Versions: 1 2 3 4 5 6 7 8 9 10 11 12 13 14 15 16 17 18 19 20 21 22 23 24 25 26 27 28 29 30 31 32 33 34 35 36 37 38 39 40 41 42 43 44 45 46 47 48 49 50

000
ASUS44 KMEG 071010
RWRTN
TENNESSEE HOURLY STATE WEATHER ROUNDUP
NATIONAL WEATHER SERVICE MEMPHIS TN
400 AM CST SUN FEB 07 2016

TNZ002-004-019-021-049-052-054-088>092-071100-
WEST TENNESSEE

CITY           SKY/WX    TMP DP  RH WIND       PRES   REMARKS
MEMPHIS INTL   CLEAR     32  23  69 S5        30.24F WCI  27
NWS MEMPHIS      N/A     28 N/A N/A MISG        N/A
JACKSON        CLEAR     23  20  88 S3        30.23F
DYERSBURG      CLEAR     30  25  80 CALM      30.24F
UNION CITY     CLEAR     28  25  86 S3        30.20F
PARIS          CLEAR     30  19  64 W6        30.21F WCI  24
LEXINGTON      CLEAR     23  21  93 CALM      30.21F
$$

TNZ008-025-027-028-033-062-065-066-071100-
NORTH MIDDLE TENNESSEE

CITY           SKY/WX    TMP DP  RH WIND       PRES   REMARKS
NASHVILLE      CLEAR     29  23  78 CALM      30.21F
CLARKSVILLE    CLEAR     29  25  85 CALM      30.20F
SMYRNA         CLEAR     25  25 100 CALM      30.22F
COOKEVILLE     CLEAR     21  21 100 CALM      30.18S
CROSSVILLE     CLEAR     28  20  71 NW5       30.16F WCI  23
$$

TNZ061-075-076-078-094-096-097-071100-
SOUTH MIDDLE TENNESSEE

CITY           SKY/WX    TMP DP  RH WIND       PRES   REMARKS
FAYETTEVILLE   PTCLDY    30  25  80 CALM      30.19F
TULLAHOMA      CLEAR     25  23  93 CALM      30.19F
WINCHESTER     CLEAR     25  23  93 CALM      30.21S
MCMINNVILLE    CLEAR     25  25 100 CALM      30.19S
COLUMBIA       CLEAR     27  27 100 CALM      30.19F
SHELBYVILLE    CLEAR     25  25 100 E3        30.21F
$$

TNZ017-018-042-046-047-071100-
NORTHEAST TENNESSEE

CITY           SKY/WX    TMP DP  RH WIND       PRES   REMARKS
TRI CITIES     CLEAR     23  19  85 CALM      30.19R
$$

TNZ012-013-036-069-073-074-071100-
CENTRAL EAST TENNESSEE

CITY           SKY/WX    TMP DP  RH WIND       PRES   REMARKS
KNOXVILLE      PTCLDY    28  23  81 CALM      30.18S
OAK RIDGE      CLEAR     28  24  85 CALM      30.19F
GATLINBURG       N/A     21  18  86 CALM      30.19R
MORRISTOWN     MOSUNNY   27  23  86 CALM      30.17R
$$

TNZ083-085-099-071100-
SOUTHEAST TENNESSEE

CITY           SKY/WX    TMP DP  RH WIND       PRES   REMARKS
CHATTANOOGA    CLEAR     30  25  81 CALM      30.18F
$$

SKY/WX REPORTED AS FAIR MEANS FEW OR NO CLOUDS BELOW
12 THOUSAND FEET.




USA.gov is the U.S. government's official web portal to all federal, state and local government web resources and services.